DW7073 Weather Reports


Display with metric or nautical units.
time (UTC)temp
F
wind
direction
speed
MPH
gust
MPH
rain 1hr
in
rain 24hr
in
rain mn
in
humidity
%
barometer
mb
20260503031804 71 318 2.0 4.0 0.00 0.31 0.31 95 1012.6
20260503031113 72 311 1.0 3.0 0.00 0.31 0.31 94 1012.5
20260503030004 71 298 1.0 3.0 0.00 0.31 0.31 95 1012.3
20260503025614 71 287 1.0 2.0 0.00 0.31 0.31 95 1012.4
20260503024503 71 326 0.0 2.0 0.00 0.31 0.31 96 1012.2
20260503023603 71 272 0.0 3.0 0.00 0.31 0.31 95 1012.0
20260503022703 70 283 0.0 2.0 0.00 0.31 0.31 96 1012.1
20260503022013 70 289 1.0 2.0 0.00 0.31 0.31 95 1012.0
20260503020903 70 238 0.0 2.0 0.00 0.31 0.31 95 1011.7
20260503020003 70 306 0.0 1.0 0.00 0.31 0.31 95 1011.2
20260503015614 70 314 0.0 2.0 0.00 0.31 0.31 95 1011.0
20260503014503 70 301 0.0 1.0 0.00 0.31 0.31 95 1011.0
20260503013603 70 308 0.0 2.0 0.00 0.31 0.31 94 1010.8
20260503012703 71 298 0.0 2.0 0.00 0.31 0.31 95 1010.8
20260503011803 70 281 0.0 1.0 0.00 0.31 0.31 93 1010.7
20260503010903 71 310 1.0 2.0 0.00 0.31 0.31 95 1010.6
20260503010213 70 295 0.0 2.0 0.00 0.31 0.31 95 1010.5
20260503005403 70 267 0.0 2.0 0.00 0.31 0.31 94 1010.3
20260503004503 70 242 0.0 3.0 0.00 0.31 0.31 95 1010.5
20260503003603 70 276 0.0 1.0 0.00 0.31 0.31 94 1010.6
20260503002913 70 286 0.0 1.0 0.00 0.31 0.31 94 1010.4
20260503001803 70 308 0.0 2.0 0.00 0.31 0.31 95 1010.3
20260503000908 70 254 0.0 1.0 0.00 0.31 0.31 94 1009.9
20260503000003 70 299 0.0 3.0 0.00 0.31 0.31 94 1009.9
20260502235403 70 309 1.0 4.0 0.00 0.31 0.31 93 1009.7
20260502234503 70 295 1.0 5.0 0.00 0.31 0.31 92 1009.7
20260502233603 71 303 1.0 4.0 0.00 0.31 0.31 93 1009.7
20260502232703 70 267 1.0 5.0 0.00 0.31 0.31 93 1009.8
20260502231803 71 283 1.0 5.0 0.00 0.31 0.31 93 1010.1
20260502230903 70 293 2.0 6.0 0.01 0.31 0.31 95 1010.0
20260502230003 70 295 2.0 6.0 0.01 0.31 0.31 95 1010.3
20260502225403 70 288 1.0 4.0 0.01 0.31 0.31 95 1009.9
20260502224503 70 306 3.0 8.0 0.01 0.31 0.31 95 1009.9
20260502223813 70 314 3.0 8.0 0.01 0.31 0.31 95 1010.2
20260502222912 71 287 1.0 3.0 0.01 0.31 0.31 94 1009.1
20260502221803 71 251 1.0 3.0 0.01 0.31 0.31 94 1009.1
20260502220903 70 280 1.0 4.0 0.00 0.30 0.30 94 1009.2
20260502220003 70 273 2.0 8.0 0.00 0.30 0.30 95 1009.7
20260502215403 70 273 2.0 9.0 0.02 0.30 0.30 95 1009.3
20260502214503 70 280 1.0 4.0 0.05 0.30 0.30 96 1009.4
20260502213603 70 272 1.0 5.0 0.07 0.30 0.30 96 1009.2
20260502212914 70 270 1.0 3.0 0.07 0.30 0.30 96 1009.2
20260502211803 70 282 0.0 2.0 0.07 0.30 0.30 97 1008.7
20260502210903 70 103 0.0 1.0 0.07 0.30 0.30 97 1008.5
20260502210003 70 111 1.0 3.0 0.08 0.30 0.30 95 1008.3
20260502205403 70 292 1.0 4.0 0.07 0.28 0.28 95 1009.2
20260502204503 70 276 2.0 7.0 0.05 0.25 0.25 95 1010.2
20260502203603 70 277 1.0 6.0 0.04 0.23 0.23 95 1010.9
20260502202703 70 273 1.0 6.0 0.05 0.23 0.23 95 1010.8
20260502201803 70 289 2.0 11.0 0.09 0.23 0.23 95 1010.8
20260502200903 70 294 3.0 9.0 0.09 0.23 0.23 95 1010.2
20260502200003 70 291 2.0 9.0 0.08 0.22 0.22 94 1010.7
20260502195403 70 285 3.0 10.0 0.08 0.21 0.21 95 1011.5
20260502194503 70 295 4.0 11.0 0.07 0.20 0.20 94 1010.8
20260502193603 70 299 5.0 14.0 0.06 0.19 0.19 94 1010.3
20260502192703 71 298 9.0 26.0 0.05 0.18 0.18 90 1010.8
20260502191803 75 299 6.0 19.0 0.01 0.14 0.14 89 1011.0
20260502190903 76 297 1.0 6.0 0.01 0.14 0.14 94 1010.1
20260502190213 76 308 1.0 3.0 0.14 0.14 0.14 94 1009.9
20260502185403 75 313 0.0 2.0 0.13 0.13 0.13 95 1009.9
20260502184503 74 135 0.0 1.0 0.13 0.13 0.13 94 1010.0
20260502183603 74 330 0.0 1.0 0.13 0.13 0.13 95 1010.0
20260502182703 73 334 0.0 3.0 0.13 0.13 0.13 93 1009.9
20260502181803 73 127 1.0 3.0 0.13 0.13 0.13 92 1010.0
20260502180903 75 288 6.0 18.0 0.13 0.13 0.13 86 1010.0
20260502180213 85 286 5.0 15.0 0.00 0.00 0.01 71 1011.2
20260502170212 87 274 4.0 11.0 0.00 0.00 0.00 68 1009.8
20260502163603 87 251 4.0 11.0 0.00 0.00 0.00 68 1009.8
20260502162703 87 269 3.0 9.0 0.00 0.00 0.00 66 1009.7
20260502161803 88 229 3.0 13.0 0.00 0.00 0.00 66 1009.7
20260502160903 87 270 2.0 9.0 0.00 0.00 0.00 70 1009.9
20260502151803 83 248 2.0 10.0 0.00 0.00 0.00 72 1010.5
20260502150903 82 237 1.0 5.0 0.00 0.00 0.00 73 1010.6
20260502123603 70 0 0.0 0.0 0.00 0.00 0.00 97 1009.9
20260502122703 70 0 0.0 0.0 0.00 0.00 0.00 97 1009.9
20260502122014 70 0 0.0 0.0 0.00 0.00 0.00 97 1009.9
20260502120903 70 0 0.0 0.0 0.00 0.00 0.00 97 1009.8
20260502115403 70 0 0.0 0.0 0.00 0.00 0.00 97 1009.7
20260502114503 70 0 0.0 0.0 0.00 0.00 0.00 97 1009.7
20260502113603 70 0 0.0 0.0 0.00 0.00 0.00 97 1009.6
20260502112703 70 0 0.0 0.0 0.00 0.00 0.00 97 1009.7
20260502111803 70 0 0.0 0.0 0.00 0.00 0.00 97 1009.4
20260502111113 70 0 0.0 0.0 0.00 0.00 0.00 97 1009.1
20260502110214 70 0 0.0 0.0 0.00 0.00 0.00 97 1009.1
20260502105403 70 0 0.0 0.0 0.00 0.00 0.00 97 1009.1
20260502104503 70 0 0.0 0.0 0.00 0.00 0.00 97 1008.8
20260502103812 70 0 0.0 0.0 0.00 0.00 0.00 97 1008.8
20260502102703 70 0 0.0 0.0 0.00 0.00 0.00 97 1008.9
20260502101803 70 0 0.0 0.0 0.00 0.00 0.00 97 1008.9
20260502100903 70 0 0.0 0.0 0.00 0.00 0.00 97 1009.1
20260502091114 71 257 0.0 1.0 0.00 0.00 0.00 96 1009.7
20260502070903 73 307 0.0 2.0 0.00 0.00 0.00 90 1009.6
20260502070003 74 299 1.0 4.0 0.00 0.00 0.00 89 1009.7
20260502065403 74 298 0.0 4.0 0.00 0.00 0.00 90 1009.9
20260502064504 74 300 1.0 2.0 0.00 0.00 0.00 88 1010.0
20260502063603 74 294 0.0 3.0 0.00 0.00 0.00 90 1010.0
20260502062703 74 299 0.0 2.0 0.00 0.00 0.00 88 1010.0
20260502060903 74 313 1.0 3.0 0.00 0.00 0.00 87 1010.2
20260502060003 74 308 0.0 3.0 0.00 0.00 0.00 90 1010.3
20260502055404 74 304 0.0 2.0 0.00 0.00 0.00 89 1010.2
20260502054503 74 300 1.0 2.0 0.00 0.00 0.00 92 1010.3
20260502053603 74 280 0.0 2.0 0.00 0.00 0.00 92 1010.2
20260502052703 74 294 1.0 2.0 0.00 0.00 0.00 94 1010.4
20260502051803 74 285 0.0 2.0 0.00 0.00 0.00 95 1010.3
20260502051113 74 283 0.0 1.0 0.00 0.00 0.00 95 1010.4
20260502050003 74 0 0.0 0.0 0.00 0.00 0.00 94 1010.4
20260502045403 74 318 0.0 1.0 0.00 0.00 0.00 94 1010.4
20260502044504 74 0 0.0 0.0 0.00 0.00 0.00 94 1010.3
20260502043603 74 0 0.0 0.0 0.00 0.00 0.00 93 1010.2
20260502042703 74 0 0.0 0.0 0.00 0.00 0.00 94 1010.3
20260502041803 74 323 0.0 1.0 0.00 0.00 0.00 93 1010.3
20260502040903 74 0 0.0 0.0 0.00 0.00 0.00 94 1010.3
20260502040003 74 0 0.0 0.0 0.00 0.00 0.00 93 1010.3
20260502035403 74 0 0.0 0.0 0.00 0.00 0.00 93 1010.4
20260502034503 75 0 0.0 0.0 0.00 0.00 0.00 92 1010.5
20260502033603 75 0 0.0 0.0 0.00 0.00 0.00 91 1010.5